Weather observations for the past three days for
Renton Municipal Airport
Imperial (Metric)
Date Time (pdt) Wind (mph) Vis. (mi.) Weather Sky Cond. Temperature (ºF) Relative Humidity Wind Chill (°F) Heat Index (°F) Pressure Precipitation (in)
Air Dwpt 6 hour altimeter (in) sea level (mb) 1 hr 3 hr 6 hr
Max. Min.
21 05:53 S 6 10.00 Fair CLR 64.9 57 76% 30.08 1019.2
21 04:53 Calm 10.00 Fair CLR 66 55.9 73 66 70% 30.06 1018.5
21 03:53 N 6 10.00 Fair CLR 66.9 57 71% 30.02 1017.1
21 02:53 N 5 10.00 Fair CLR 68 57.9 70% 30.01 1016.5
21 01:53 N 6 10.00 Fair CLR 69.1 57.9 68% 30.01 1016.8
21 00:53 N 8 10.00 Fair CLR 70 57.9 66% 30.01 1016.7
20 23:53 N 12 10.00 Fair CLR 71.1 55.9 59% 30.02 1016.9
20 22:53 N 9 10.00 Fair CLR 73 57 88 73 57% 30.02 1017.0
20 21:53 N 10 10.00 Fair CLR 75.9 57.9 54% 78 30.01 1016.6
20 20:53 NW 10 10.00 Fair CLR 79 57.9 49% 80 30 1016.4
20 19:53 N 8 10.00 Fair CLR 82 59 46% 82 30 1016.4
20 18:53 NW 12 10.00 Fair CLR 84.9 55.9 37% 84 30 1016.5
20 17:53 NW 12 10.00 Fair CLR 86 57 37% 85 30.01 1016.5
20 16:53 NW 13 8.00 Fair CLR 87.1 55.9 88 75 35% 86 30.02 1017.2
20 15:53 NW 14 10.00 Fair CLR 86 55.9 36% 85 30.04 1017.8
20 14:53 NW 12 10.00 Fair CLR 86 55 35% 84 30.07 1018.6
20 13:53 NW 12 10.00 Fair CLR 82.9 55 38% 82 30.09 1019.3
20 12:53 NW 8 10.00 Fair CLR 81 57 44% 81 30.11 1020.0
20 11:53 NW 7 10.00 Fair CLR 78.1 57 48% 79 30.12 1020.5
20 10:53 N 6 10.00 Fair CLR 75 55.9 75.9 60.1 52% 78 30.14 1021.0
20 09:53 N 6 10.00 Fair CLR 73 57 57% 30.14 1021.2
20 08:53 N 3 10.00 Fair CLR 69.1 57 66% 30.15 1021.5
20 07:53 Calm 10.00 Fair CLR 66.9 55.9 68% 30.15 1021.4
20 06:53 Calm 10.00 Fair CLR 62.1 55.9 80% 30.14 1021.2
20 05:53 Calm 10.00 Fair CLR 61 55 81% 30.15 1021.3
20 04:53 Calm 10.00 Fair CLR 62.1 55 73 61 78% 30.14 1021.2
20 03:53 Calm 9.00 Fair CLR 63 55.9 78% 30.14 1021.1
20 02:53 Calm 10.00 Fair CLR 64.9 57 76% 30.14 1021.1
20 01:53 N 8 10.00 Fair CLR 68 57.9 70% 30.14 1021.2
20 00:53 N 8 10.00 Fair CLR 69.1 57.9 68% 30.14 1021.2
19 23:53 N 10 10.00 Fair CLR 71.1 55.9 59% 30.14 1021.0
19 22:53 NW 10 10.00 Fair CLR 73 55.9 84.9 73 55% 30.13 1020.8
19 21:53 N 13 10.00 Fair CLR 75 55.9 52% 78 30.13 1020.7
19 20:53 N 9 10.00 Fair CLR 78.1 57 48% 79 30.11 1020.1
19 19:53 NW 8 10.00 Fair CLR 82 55.9 41% 82 30.11 1020.0
19 18:53 N 6 10.00 Fair CLR 84 54 36% 83 30.11 1020.1
19 17:53 N 6 10.00 Fair CLR 84 53.1 34% 83 30.12 1020.3
19 16:53 N 5 10.00 Fair CLR 84 54 84 71.1 36% 83 30.13 1020.7
19 15:53 N 6 10.00 Fair CLR 82.9 52 34% 82 30.14 1021.2
19 14:53 N 8 10.00 Fair CLR 81 54 39% 81 30.16 1021.7
19 13:53 Vrbl 6 10.00 Fair CLR 80.1 53.1 39% 80 30.17 1022.2
19 12:53 Vrbl 7 10.00 Fair CLR 77 52 42% 78 30.18 1022.4
19 11:53 Calm 10.00 Fair CLR 75 57 54% 78 30.19 1022.7
19 10:53 Vrbl 3 10.00 Fair CLR 71.1 57 71.1 61 61% 30.2 1023.0
19 09:53 S 6 7.00 Fair CLR 66.9 55.9 68% 30.2 1023.1
19 08:53 S 6 7.00 Fair CLR 64 55.9 75% 30.2 1023.2
19 07:53 S 7 6.00 A Few Clouds with Haze FEW016 64 55 73% 30.19 1022.7
19 06:53 S 6 6.00 Fair with Haze CLR 61 55 81% 30.17 1022.2
19 05:53 Calm 7.00 Fair CLR 61 55 81% 30.17 1022.1
19 04:53 S 6 8.00 Fair CLR 62.1 55 72 62.1 78% 30.15 1021.5
19 03:53 S 5 8.00 Fair CLR 63 55 76% 30.14 1021.1
19 02:53 S 5 10.00 Fair CLR 64.9 55 70% 30.13 1020.8
19 01:53 S 6 9.00 Fair CLR 66 55 68% 30.13 1020.6
19 00:53 Calm 10.00 Fair CLR 66.9 55 66% 30.12 1020.5
18 23:53 S 5 10.00 Fair CLR 69.1 54 59% 30.11 1020.0
18 22:53 Calm 10.00 Fair CLR 72 55 86 71.1 55% 30.1 1019.8
18 21:53 S 6 10.00 Fair CLR 75 55 50% 78 30.08 1019.1
18 20:53 SW 6 10.00 Fair CLR 77 55.9 48% 79 30.05 1018.2
18 19:53 SW 7 10.00 Fair CLR 81 57 44% 81 30.03 1017.5
18 18:53 W 5 10.00 Fair CLR 82.9 55.9 40% 82 30.02 1017.1
18 17:53 S 8 10.00 Fair CLR 84.9 52 32% 83 30.02 1016.9
18 16:53 S 7 10.00 Fair CLR 84.9 54 84.9 69.1 35% 83 30.03 1017.3
18 15:53 Vrbl 5 10.00 Fair CLR 82.9 55.9 40% 82 30.03 1017.5
18 14:53 S 7 10.00 Fair CLR 81 57.9 45% 81 30.04 1017.9
18 13:53 Vrbl 6 10.00 Fair CLR 78.1 57 48% 79 30.06 1018.4
18 12:53 S 7 10.00 Fair CLR 75.9 55 48% 78 30.07 1018.6
18 11:53 Vrbl 7 10.00 Fair CLR 72 55.9 57% 30.07 1018.8
18 10:53 Vrbl 3 9.00 Fair CLR 69.1 55 69.1 61 61% 30.08 1019.1
18 09:53 SW 9 10.00 Fair CLR 68 54 61% 30.09 1019.3
18 08:53 S 6 10.00 Fair CLR 64.9 55 70% 30.09 1019.4
18 07:53 S 5 10.00 Fair CLR 63 55 76% 30.08 1019.2
18 06:53 S 6 10.00 Fair CLR 62.1 55 78% 30.09 1019.2
Date Time (pdt) Wind (mph) Vis. (mi.) Weather Sky Cond. Air Dwpt Max. Min. Relative Humidity Wind Chill (°F) Heat Index (°F) altimeter (in) sea level (mb) 1 hr 3 hr 6 hr
6 hour
Temperature (ºF) Pressure Precipitation (in)